Location: Fishcreek Rd Observing Site
(41.1865°N, 81.4271°W)
Time: 05:08:18
(UTC-05:00)

Hubble Space Telescope - Visible Passes

Search period start: 18 November 2017 00:00
Search period end: 28 November 2017 00:00
Orbit: 537 x 541 km, 28.5° (Epoch: 17 November)

Date Brightness Start Highest point End Pass type
(mag) Time Alt. Az. Time Alt. Az. Time Alt. Az.
18 Nov 3.4 06:06:43 10° SSW 06:08:32 13° S 06:10:20 10° SSE visible
19 Nov 3.3 05:56:10 10° SSW 05:58:11 13° S 06:00:12 10° SE visible
20 Nov 3.2 05:45:43 10° SSW 05:47:51 14° S 05:49:58 10° SSE visible
21 Nov 3.1 05:35:52 11° SSW 05:37:30 14° S 05:39:40 10° SSE visible
22 Nov 3.1 05:26:19 13° SSW 05:27:09 14° S 05:29:16 10° SSE visible
23 Nov 3.1 05:16:45 13° S 05:16:49 13° S 05:18:48 10° SSE visible
24 Nov 3.3 05:07:10 12° S 05:07:10 12° S 05:08:14 10° SSE visible
